STARLINK-1280, 45388

Orbit data source: Space-Track

STARLINK-1280, 45388 is a payload satellite owned by SpaceX/Seattle (US) in LEO that was launched on Wed, 18 Mar 2020 UTC via an FALCON 9 launch vehicle from the Air Force Eastern Test Range (AFETR). Payload-class satellites include a variety of spacecraft equipped with specific instruments for various scientific and technological missions. These include communications satellites like Starlink; space stations such as the ISS; scientific satellites like the Hubble; Earth observation satellites from companies like Planet Labs, Umbra, and HawkEye 360; GPS; miniature CubeSats for education and research; and military/defense satellites.

Loading next visibility...
Identifier
45388, 2020-019AE
Orbit
LEO
Country
Flag of USUS
Related business
Manufacturer
SpaceX/Seattle
Mission
Partially operational Commercial Communications
Bus & Motor
STARLINK, Unknown motor
Mass
260 kg wet, ~248 kg dry
Launch date (UTC)
2020-03-18 (6 years ago)
Launch vehicle
FALCON 9
Launch site
Air Force Eastern Test Range (AFETR)
Object type
Payload
Rocket body
Debris
Shape & HBR
Box + 1 Pan, 10.1 m
Radar Cross Section
13.562 m², Large (>1 m²)

Expand to show TLE details & history
Last TLE update: 5 hours ago

TLE from 5 hours ago
0 STARLINK-1280
1 45388U 20019AE  25295.25001156  .01889172  00000-0  64168-1 0  9995
2 45388  53.0560  67.3385 0001164  81.5098 220.5798 15.26832000  5638
Epoch: 2025-10-22T06:00Z
TLE epoch observation values (Epoch: 2025-10-22T06:00:00.998Z)
Latitude
-42.821°
Longitude
-97.46417°
Altitude
500.219 km
Speed
7.614 km/s
True Right ascension
01h 33m 51s
True Declination
-42° 38' 35"
Sunlit
Object was in full shadow at epoch
Visualization orbit readout
Latitude
Unknown
Longitude
Unknown
Altitude
Unknown
Speed
Unknown
Apparent Right ascension
Unknown
Apparent Declination
Unknown
Sunlit
N/A
Visualization observer readout
Local Sidereal Time
05:54:22
Azimuth
Unknown
Elevation
Unknown
Doppler factor
Unknown
Orbital elements
Apogee altitude
486.362 km
Perigee altitude
484.764 km
Semi-major axis
6,863.7 km
Eccentricity
0.00012
Inclination
53.056°
RAAN
67.3385°
Arg. of periapsis
81.5098°
True anomaly
220.57112°
Mean anomaly
220.5798°
Eccentric anomaly
220.57546°
Mean motion
3.81686 °/min
Orbital period
94.32 mins
BSTAR
0.064168
Loading maneuver chart data...
Computing Atmospheric mass density...
Loading historical data...
Loading historical data...
Loading historical data...
Loading historical data...
Loading historical data...
Loading historical data...
Loading historical data...

Documentation

Showing up to 5 results
|